[Date Prev][Date Next][Thread Prev][Thread Next] - [Date Index][Thread Index][Author Index]
2 Line ISS Keps 1-28
- Subject: [sarex] 2 Line ISS Keps 1-28
- From: "Dave Larsen PhD" <doc@xxxxxxxxxxx>
- Date: Fri, 27 Jan 2006 18:28:05 -0800
ISS
1 25544U 98067A 06028.02951389 .00012418 00000-0 88300-4 0 2344
2 25544 051.6428 188.2319 0009526 203.2085 302.0530 15.74288411411079
----
Via the sarex mailing list at AMSAT.ORG courtesy of AMSAT-NA.
To unsubscribe, send "unsubscribe sarex" to Majordomo@amsat.org
AMSAT Home